FW5744 Weather Reports


Display with metric or nautical units.
time (UTC)temp
F
wind
direction
speed
MPH
gust
MPH
rain 1hr
in
rain 24hr
in
rain mn
in
humidity
%
barometer
mb
20260506172544 66 215 6.0 11.0 0.02 0.03 0.03 82 1007.7
20260506172043 65 216 2.0 10.0 0.02 0.03 0.03 83 1007.7
20260506171546 65 359 4.0 9.0 0.03 0.03 0.03 83 1007.8
20260506171043 65 215 5.0 10.0 0.03 0.03 0.03 82 1007.8
20260506170542 65 174 5.0 11.0 0.03 0.03 0.03 82 1008.0
20260506170045 65 237 7.0 13.0 0.03 0.03 0.03 82 1008.2
20260506165540 65 226 6.0 14.0 0.03 0.03 0.03 81 1008.5
20260506165039 65 359 8.0 19.0 0.02 0.02 0.02 81 1008.7
20260506164546 65 220 9.0 19.0 0.02 0.02 0.02 80 1008.8
20260506164037 65 224 10.0 19.0 0.02 0.02 0.02 79 1009.0
20260506163538 65 226 8.0 19.0 0.01 0.01 0.01 78 1009.0
20260506163037 66 228 8.0 15.0 0.01 0.01 0.01 78 1009.0
20260506162536 66 359 7.0 19.0 0.01 0.01 0.01 77 1009.0
20260506162036 66 199 9.0 19.0 0.01 0.01 0.01 75 1009.2
20260506161544 67 264 10.0 17.0 0.00 0.00 0.00 73 1009.2
20260506161035 68 240 11.0 20.0 0.00 0.00 0.00 71 1009.1
20260506160535 69 236 7.0 20.0 0.00 0.00 0.00 69 1009.3
20260506160044 69 237 10.0 23.0 0.00 0.00 0.00 67 1009.3
20260506155535 70 219 11.0 23.0 0.00 0.00 0.00 65 1009.2
20260506155035 70 233 10.0 23.0 0.00 0.00 0.00 64 1009.1
20260506154535 71 237 13.0 23.0 0.00 0.00 0.00 63 1009.2
20260506154035 71 258 11.0 22.0 0.00 0.00 0.00 63 1009.3
20260506153535 71 206 12.0 22.0 0.00 0.00 0.00 63 1009.0
20260506153033 70 226 10.0 17.0 0.00 0.00 0.00 64 1009.0
20260506152535 70 359 10.0 22.0 0.00 0.00 0.00 64 1009.1
20260506152034 70 247 11.0 23.0 0.00 0.00 0.00 64 1009.0
20260506151540 70 218 13.0 23.0 0.00 0.00 0.00 63 1009.0
20260506151034 71 241 7.0 18.0 0.00 0.00 0.00 63 1009.2
20260506150534 71 237 10.0 21.0 0.00 0.00 0.00 63 1009.3
20260506150033 71 216 11.0 25.0 0.00 0.00 0.00 63 1009.4
20260506145533 71 285 11.0 31.0 0.00 0.00 0.00 63 1009.2
20260506145032 71 232 15.0 31.0 0.00 0.00 0.00 63 1009.2
20260506144532 71 270 12.0 21.0 0.00 0.00 0.00 63 1009.3
20260506144041 71 359 11.0 21.0 0.00 0.00 0.00 63 1009.3
20260506143532 71 194 12.0 23.0 0.00 0.00 0.00 63 1009.3
20260506143042 71 359 9.0 23.0 0.00 0.00 0.00 64 1009.2
20260506142529 71 252 12.0 23.0 0.00 0.00 0.00 64 1009.1
20260506142028 70 277 9.0 19.0 0.00 0.00 0.00 64 1009.2
20260506141528 70 359 9.0 18.0 0.00 0.00 0.00 65 1009.2
20260506141031 70 259 8.0 27.0 0.00 0.00 0.00 65 1009.2
20260506140528 70 256 11.0 27.0 0.00 0.00 0.00 65 1009.1
20260506140033 70 237 10.0 23.0 0.00 0.00 0.00 65 1009.2
20260506135531 70 216 9.0 19.0 0.00 0.00 0.00 65 1009.1
20260506135026 70 228 9.0 19.0 0.00 0.00 0.00 65 1009.2
20260506134528 70 241 10.0 23.0 0.00 0.00 0.00 65 1009.1
20260506134026 70 233 15.0 23.0 0.00 0.00 0.00 65 1009.3
20260506133526 70 227 10.0 21.0 0.00 0.00 0.00 66 1009.4
20260506133026 70 359 7.0 18.0 0.00 0.00 0.00 66 1009.4
20260506132524 70 359 7.0 19.0 0.00 0.00 0.00 67 1009.4
20260506132023 69 260 7.0 22.0 0.00 0.00 0.00 67 1009.2
20260506131526 69 252 8.0 22.0 0.00 0.00 0.00 68 1009.4
20260506131022 69 249 9.0 21.0 0.00 0.00 0.00 68 1009.4
20260506130526 69 190 10.0 19.0 0.00 0.00 0.00 68 1009.3
20260506130021 68 244 8.0 20.0 0.00 0.00 0.00 68 1009.3
20260506125521 68 237 10.0 20.0 0.00 0.00 0.00 68 1009.2
20260506125020 68 253 7.0 17.0 0.00 0.00 0.00 69 1009.2
20260506124520 68 248 10.0 20.0 0.00 0.00 0.00 69 1009.3
20260506124021 68 359 10.0 20.0 0.00 0.00 0.00 70 1009.2
20260506123520 67 359 8.0 16.0 0.00 0.00 0.00 71 1009.3
20260506123019 67 359 8.0 16.0 0.00 0.00 0.00 71 1009.2
20260506122519 67 249 7.0 16.0 0.00 0.00 0.00 71 1009.4
20260506122020 66 225 9.0 19.0 0.00 0.00 0.00 72 1009.4
20260506121519 66 255 8.0 19.0 0.00 0.00 0.00 72 1009.4
20260506121020 66 231 8.0 18.0 0.00 0.00 0.00 72 1009.3
20260506120522 66 243 10.0 18.0 0.00 0.00 0.00 72 1009.4
20260506120019 66 224 8.0 22.0 0.00 0.00 0.00 72 1009.5
20260506115520 66 212 13.0 23.0 0.00 0.00 0.00 72 1009.6
20260506115018 66 224 11.0 23.0 0.00 0.00 0.00 72 1009.6
20260506114523 66 359 11.0 23.0 0.00 0.00 0.00 73 1009.6
20260506114018 66 246 12.0 22.0 0.00 0.00 0.00 73 1009.6
20260506113518 66 238 8.0 18.0 0.00 0.00 0.00 73 1009.6
20260506113019 65 230 11.0 18.0 0.00 0.00 0.00 74 1009.6
20260506112516 65 219 10.0 22.0 0.00 0.00 0.00 75 1009.6
20260506112016 65 359 9.0 22.0 0.00 0.00 0.00 75 1009.5
20260506111516 65 285 10.0 20.0 0.00 0.00 0.00 75 1009.7
20260506111016 65 239 9.0 19.0 0.00 0.00 0.00 75 1009.6
20260506110520 65 359 8.0 18.0 0.00 0.00 0.00 76 1009.5
20260506110017 64 233 10.0 18.0 0.00 0.00 0.00 76 1009.4
20260506105518 64 242 8.0 17.0 0.00 0.00 0.00 76 1009.3
20260506105017 64 195 8.0 17.0 0.00 0.00 0.00 77 1009.3
20260506104516 64 206 8.0 16.0 0.00 0.00 0.00 77 1009.4
20260506104014 64 190 9.0 19.0 0.00 0.00 0.00 77 1009.4
20260506103515 64 359 7.0 19.0 0.00 0.00 0.00 77 1009.4
20260506103016 64 359 10.0 18.0 0.00 0.00 0.00 77 1009.4
20260506102512 63 237 7.0 15.0 0.00 0.00 0.00 77 1009.4
20260506102011 64 189 7.0 15.0 0.00 0.00 0.00 78 1009.3
20260506101518 63 228 6.0 16.0 0.00 0.00 0.00 78 1009.3
20260506101015 63 177 8.0 16.0 0.00 0.00 0.00 78 1009.2
20260506100513 63 230 6.0 14.0 0.00 0.00 0.00 78 1009.2
20260506100009 63 189 7.0 19.0 0.00 0.00 0.00 78 1009.1
20260506095508 63 233 9.0 19.0 0.00 0.00 0.00 78 1009.2
20260506095008 63 212 8.0 16.0 0.00 0.00 0.00 78 1009.2
20260506094514 63 214 10.0 16.0 0.00 0.00 0.00 78 1009.2
20260506094006 63 219 9.0 18.0 0.00 0.00 0.00 78 1009.2
20260506093607 63 226 8.0 17.0 0.00 0.00 0.00 78 1009.2
20260506093005 63 359 5.0 12.0 0.00 0.00 0.00 78 1009.2
20260506092504 63 233 7.0 14.0 0.00 0.00 0.00 78 1009.2
20260506092004 63 235 4.0 14.0 0.00 0.00 0.00 78 1009.3
20260506091504 63 249 6.0 14.0 0.00 0.00 0.00 78 1009.3
20260506091007 64 359 6.0 15.0 0.00 0.00 0.00 78 1009.3
20260506090504 64 193 7.0 15.0 0.00 0.00 0.00 78 1009.2
20260506090006 64 208 7.0 14.0 0.00 0.00 0.00 78 1009.3
20260506085501 64 359 4.0 15.0 0.00 0.00 0.00 78 1009.3
20260506085001 64 183 9.0 15.0 0.00 0.00 0.00 78 1009.5
20260506084608 64 200 6.0 17.0 0.00 0.00 0.00 78 1009.4
20260506084503 64 359 6.0 17.0 0.00 0.00 0.00 78 1009.5
20260506084100 64 216 8.0 17.0 0.00 0.00 0.00 78 1009.4
20260506083559 64 227 8.0 16.0 0.00 0.00 0.00 78 1009.5
20260506083058 64 359 9.0 15.0 0.00 0.00 0.00 78 1009.4
20260506082558 64 218 7.0 15.0 0.00 0.00 0.00 78 1009.5
20260506082058 64 162 6.0 14.0 0.00 0.00 0.00 77 1009.7
20260506081555 64 212 7.0 14.0 0.00 0.00 0.00 78 1009.6
20260506081054 64 359 6.0 14.0 0.00 0.00 0.00 78 1009.6
20260506080553 64 236 7.0 14.0 0.00 0.00 0.00 78 1009.6
20260506073049 64 232 5.0 12.0 0.00 0.00 0.00 76 1009.6
20260506072547 64 231 6.0 12.0 0.00 0.00 0.00 75 1009.6
20260506072050 65 227 4.0 15.0 0.00 0.00 0.00 75 1009.7
20260506071603 65 226 8.0 15.0 0.00 0.00 0.00 75 1009.7
20260506071047 65 216 6.0 15.0 0.00 0.00 0.00 74 1009.8
20260506070544 65 359 9.0 15.0 0.00 0.00 0.00 74 1009.8
20260506062036 66 206 9.0 15.0 0.00 0.00 0.00 72 1009.7
20260506061536 66 223 8.0 13.0 0.00 0.00 0.00 71 1009.7
20260506061035 66 233 8.0 17.0 0.00 0.00 0.00 71 1009.7
20260506060536 67 204 8.0 16.0 0.00 0.00 0.00 71 1009.7
20260506051024 67 259 9.0 18.0 0.00 0.00 0.00 68 1010.2
20260506050527 67 181 12.0 20.0 0.00 0.00 0.00 68 1010.2
20260506045022 67 251 8.0 19.0 0.00 0.00 0.00 68 1010.2
20260506044525 67 247 8.0 19.0 0.00 0.00 0.00 67 1010.2
20260506044028 67 216 8.0 16.0 0.00 0.00 0.00 67 1010.3
20260506043521 68 278 10.0 16.0 0.00 0.00 0.00 67 1010.2
20260506043021 68 223 8.0 21.0 0.00 0.00 0.00 67 1010.2
20260506042519 68 226 10.0 21.0 0.00 0.00 0.00 67 1010.3
20260506042024 68 199 12.0 20.0 0.00 0.00 0.00 66 1010.2
20260506041526 68 241 8.0 20.0 0.00 0.00 0.00 66 1010.3
20260506041017 68 231 9.0 21.0 0.00 0.00 0.00 65 1010.3
20260506040522 68 359 12.0 23.0 0.00 0.00 0.00 65 1010.2
20260506040014 68 242 9.0 20.0 0.00 0.00 0.00 65 1010.2
20260506035520 68 210 10.0 17.0 0.00 0.00 0.00 65 1010.3
20260506035015 68 200 7.0 19.0 0.00 0.00 0.00 64 1010.3
20260506034515 69 260 8.0 18.0 0.00 0.00 0.00 64 1010.4
20260506034014 69 217 11.0 24.0 0.00 0.00 0.00 63 1010.5
20260506033514 69 225 6.0 24.0 0.00 0.00 0.00 63 1010.4
20260506033014 69 222 11.0 25.0 0.00 0.00 0.00 62 1010.3
20260506032518 69 247 12.0 25.0 0.00 0.00 0.00 62 1010.2
20260506032014 69 237 14.0 23.0 0.00 0.00 0.00 61 1010.1
20260506031519 70 179 9.0 25.0 0.00 0.00 0.00 61 1010.2
20260506031014 70 211 13.0 25.0 0.00 0.00 0.00 61 1010.2
20260506030513 70 243 13.0 27.0 0.00 0.00 0.00 60 1010.2
20260506030015 70 212 15.0 27.0 0.00 0.00 0.00 60 1010.2
20260506025514 70 204 10.0 26.0 0.00 0.00 0.00 59 1010.0
20260506025015 70 236 12.0 26.0 0.00 0.00 0.00 59 1010.2
20260506024512 70 359 11.0 22.0 0.00 0.00 0.00 59 1010.1
20260506024012 70 236 10.0 18.0 0.00 0.00 0.00 59 1010.2
20260506023513 70 226 10.0 21.0 0.00 0.00 0.00 59 1010.2
20260506023012 70 255 11.0 23.0 0.00 0.00 0.00 58 1010.3
20260506022511 70 190 8.0 23.0 0.00 0.00 0.00 58 1010.2
20260506022011 70 359 10.0 22.0 0.00 0.00 0.00 58 1010.2
20260506021511 71 233 6.0 19.0 0.00 0.00 0.00 58 1010.2
20260506021011 71 187 12.0 19.0 0.00 0.00 0.00 58 1010.2
20260506020513 71 222 8.0 20.0 0.00 0.00 0.00 58 1010.2
20260506020014 71 206 10.0 20.0 0.00 0.00 0.00 58 1010.2
20260506015511 71 195 9.0 21.0 0.00 0.00 0.00 58 1010.1
20260506015011 71 218 14.0 21.0 0.00 0.00 0.00 57 1010.1
20260506014517 71 231 12.0 20.0 0.00 0.00 0.00 57 1010.0
20260506014010 72 208 8.0 20.0 0.00 0.00 0.00 57 1009.9
20260506013510 72 247 10.0 20.0 0.00 0.00 0.00 57 1010.0
20260506013022 72 229 10.0 19.0 0.00 0.00 0.00 57 1009.9
20260506012510 72 169 9.0 18.0 0.00 0.00 0.00 57 1010.0
20260506012010 72 217 7.0 19.0 0.00 0.00 0.00 57 1009.8
20260506011509 72 262 9.0 18.0 0.00 0.00 0.00 57 1009.8
20260506011009 72 226 9.0 18.0 0.00 0.00 0.00 56 1009.7
20260506010510 72 175 7.0 18.0 0.00 0.00 0.00 56 1009.7
20260506010009 72 206 7.0 21.0 0.00 0.00 0.00 55 1009.7
20260506005509 73 253 9.0 18.0 0.00 0.00 0.00 54 1009.6
20260506005015 74 197 8.0 18.0 0.00 0.00 0.00 51 1009.4
20260506004517 76 194 9.0 19.0 0.00 0.00 0.00 47 1009.4
20260506004008 76 252 10.0 22.0 0.00 0.00 0.00 45 1009.2
20260506003510 76 249 13.0 22.0 0.00 0.00 0.00 44 1009.2
20260506003007 77 256 11.0 23.0 0.00 0.00 0.00 44 1009.2
20260506002510 77 248 9.0 17.0 0.00 0.00 0.00 44 1009.2
20260506002007 77 241 9.0 22.0 0.00 0.00 0.00 43 1009.1
20260506001508 77 256 11.0 22.0 0.00 0.00 0.00 43 1009.1
20260506001008 78 237 8.0 19.0 0.00 0.00 0.00 43 1009.0
20260506000507 78 213 12.0 24.0 0.00 0.00 0.00 42 1009.0
20260506000015 78 231 13.0 24.0 0.00 0.00 0.00 41 1008.9
20260505235514 78 212 13.0 28.0 0.00 0.00 0.00 41 1008.9
20260505235007 79 249 11.0 28.0 0.00 0.00 0.00 41 1009.0
20260505234514 79 234 15.0 28.0 0.00 0.00 0.00 40 1008.9
20260505234006 79 230 12.0 22.0 0.00 0.00 0.00 40 1009.0
20260505233511 79 256 9.0 25.0 0.00 0.00 0.00 39 1008.8
20260505233006 80 226 15.0 27.0 0.00 0.00 0.00 39 1008.7
20260505232505 80 284 9.0 20.0 0.00 0.00 0.00 39 1008.7
20260505232005 80 241 7.0 20.0 0.00 0.00 0.00 38 1008.4
20260505231505 80 217 9.0 20.0 0.00 0.00 0.00 36 1008.2
20260505231004 80 214 9.0 20.0 0.00 0.00 0.00 34 1008.3
20260505230506 81 359 8.0 18.0 0.00 0.00 0.00 34 1008.2
20260505230005 81 297 12.0 27.0 0.00 0.00 0.00 33 1008.1
20260505225505 81 210 9.0 32.0 0.00 0.00 0.00 33 1008.1
20260505225005 81 251 16.0 31.0 0.00 0.00 0.00 33 1008.1
20260505224506 81 235 12.0 21.0 0.00 0.00 0.00 32 1008.1
20260505224007 81 253 11.0 27.0 0.00 0.00 0.00 32 1008.2
20260505223507 81 359 14.0 33.0 0.00 0.00 0.00 31 1008.0
20260505223007 82 229 14.0 33.0 0.00 0.00 0.00 30 1007.9
20260505222503 82 252 14.0 27.0 0.00 0.00 0.00 30 1008.0
20260505222005 82 272 15.0 32.0 0.00 0.00 0.00 29 1008.0
20260505221503 83 269 19.0 32.0 0.00 0.00 0.00 29 1008.0
20260505221002 83 259 15.0 30.0 0.00 0.00 0.00 29 1007.8
20260505220502 83 226 11.0 23.0 0.00 0.00 0.00 30 1007.8
20260505220006 83 279 10.0 32.0 0.00 0.00 0.00 30 1007.7
20260505215100 83 359 13.0 22.0 0.00 0.00 0.00 35 1007.5
20260505214609 83 245 13.0 21.0 0.00 0.00 0.00 35 1007.4
20260505214101 83 218 10.0 31.0 0.00 0.00 0.00 36 1007.6
20260505213558 83 235 15.0 27.0 0.00 0.00 0.00 36 1007.5
20260505213101 83 234 14.0 24.0 0.00 0.00 0.00 36 1007.6
20260505212557 83 287 12.0 29.0 0.00 0.00 0.00 36 1007.4
20260505212057 83 264 15.0 29.0 0.00 0.00 0.00 35 1007.5
20260505211616 84 359 12.0 29.0 0.00 0.00 0.00 34 1007.5
20260505211056 83 193 11.0 35.0 0.00 0.00 0.00 35 1007.4
20260505210556 83 316 13.0 35.0 0.00 0.00 0.00 35 1007.5
20260505210106 83 359 14.0 30.0 0.00 0.00 0.00 35 1007.3
20260505205555 83 282 13.0 33.0 0.00 0.00 0.00 34 1007.4
20260505205055 83 229 17.0 28.0 0.00 0.00 0.00 34 1007.2
20260505204555 83 240 15.0 26.0 0.00 0.00 0.00 33 1007.3
20260505204056 83 241 17.0 26.0 0.00 0.00 0.00 33 1007.2
20260505203554 84 254 16.0 26.0 0.00 0.00 0.00 33 1007.5
20260505203054 84 359 14.0 29.0 0.00 0.00 0.00 34 1007.5
20260505202554 84 359 17.0 29.0 0.00 0.00 0.00 33 1007.5
20260505202054 84 247 14.0 29.0 0.00 0.00 0.00 33 1007.5
20260505201604 84 359 8.0 29.0 0.00 0.00 0.00 34 1007.5
20260505201053 84 237 14.0 29.0 0.00 0.00 0.00 33 1007.7
20260505200552 84 246 14.0 26.0 0.00 0.00 0.00 32 1007.7
20260505200052 84 214 15.0 25.0 0.00 0.00 0.00 33 1007.7
20260505195552 84 229 11.0 25.0 0.00 0.00 0.00 33 1007.6
20260505195054 84 212 14.0 25.0 0.00 0.00 0.00 33 1007.6
20260505194550 84 231 15.0 25.0 0.00 0.00 0.00 32 1007.7
20260505194051 84 359 13.0 26.0 0.00 0.00 0.00 33 1007.7
20260505193552 84 232 14.0 28.0 0.00 0.00 0.00 34 1007.8
20260505193050 84 215 14.0 28.0 0.00 0.00 0.00 34 1007.9
20260505192549 84 249 18.0 28.0 0.00 0.00 0.00 34 1008.1
20260505192045 84 210 17.0 28.0 0.00 0.00 0.00 34 1008.1
20260505191552 84 359 9.0 22.0 0.00 0.00 0.00 35 1008.1
20260505191043 84 359 12.0 24.0 0.00 0.00 0.00 36 1008.2
20260505190542 84 227 13.0 29.0 0.00 0.00 0.00 36 1008.2
20260505190058 84 208 16.0 29.0 0.00 0.00 0.00 36 1008.3
20260505185539 83 257 11.0 23.0 0.00 0.00 0.00 37 1008.6
20260505185038 83 216 14.0 29.0 0.00 0.00 0.00 37 1008.7
20260505184542 83 231 15.0 29.0 0.00 0.00 0.00 36 1008.6
20260505184037 83 222 14.0 28.0 0.00 0.00 0.00 37 1008.7
20260505183539 83 251 13.0 22.0 0.00 0.00 0.00 38 1008.8
20260505183047 83 237 12.0 27.0 0.00 0.00 0.00 38 1008.8
20260505182536 83 231 13.0 27.0 0.00 0.00 0.00 38 1008.9
20260505182035 83 359 11.0 27.0 0.00 0.00 0.00 38 1008.8
20260505181534 83 175 14.0 27.0 0.00 0.00 0.00 38 1008.8
20260505181039 83 359 13.0 20.0 0.00 0.00 0.00 39 1008.8
20260505180538 83 298 9.0 18.0 0.00 0.00 0.00 39 1008.8
20260505180038 83 237 8.0 19.0 0.00 0.00 0.00 40 1009.0
20260505175533 83 207 8.0 24.0 0.00 0.00 0.00 40 1009.1
20260505175030 82 243 12.0 24.0 0.00 0.00 0.00 40 1009.2
20260505174537 82 234 12.0 23.0 0.00 0.00 0.00 41 1009.2
20260505174029 82 191 13.0 23.0 0.00 0.00 0.00 41 1009.4
20260505173528 82 230 9.0 20.0 0.00 0.00 0.00 41 1009.4
20260505173035 82 233 13.0 20.0 0.00 0.00 0.00 41 1009.5